TimeMDT,TemperatureF,Dew PointF,Humidity,Sea Level PressureIn,VisibilityMPH,Wind Direction,Wind SpeedMPH,Gust SpeedMPH,PrecipitationIn,Events,Conditions,WindDirDegrees,DateUTC
12:15 AM,81.5,41.9,25,30.14,10.0,NE,10.4,-,N/A,,Clear,40,2013-06-30 06:15:00
12:35 AM,80.1,41.9,26,30.15,10.0,NE,10.4,-,N/A,,Clear,50,2013-06-30 06:35:00
12:55 AM,75.7,41.9,30,30.15,10.0,NE,6.9,-,N/A,,Clear,40,2013-06-30 06:55:00
1:15 AM,73.8,42.1,32,30.15,10.0,ENE,8.1,-,N/A,,Clear,70,2013-06-30 07:15:00
1:35 AM,73.2,41.9,32,30.15,10.0,ENE,4.6,-,N/A,,Clear,60,2013-06-30 07:35:00
1:55 AM,70.9,42.3,36,30.15,10.0,NE,5.8,-,N/A,,Clear,40,2013-06-30 07:55:00
2:15 AM,70.3,44.8,40,30.15,10.0,NNE,9.2,-,N/A,,Clear,30,2013-06-30 08:15:00
2:35 AM,73.0,42.8,34,30.15,10.0,NE,9.2,-,N/A,,Clear,50,2013-06-30 08:35:00
2:55 AM,73.4,42.4,33,30.15,10.0,NE,9.2,-,N/A,,Clear,50,2013-06-30 08:55:00
3:15 AM,72.1,42.1,34,30.15,10.0,NE,9.2,-,N/A,,Clear,50,2013-06-30 09:15:00
3:35 AM,70.0,43.2,38,30.16,10.0,ENE,5.8,-,N/A,,Clear,60,2013-06-30 09:35:00
3:55 AM,70.0,43.3,38,30.16,10.0,NE,4.6,-,N/A,,Clear,50,2013-06-30 09:55:00
4:15 AM,67.1,46.2,47,30.16,10.0,Calm,Calm,-,N/A,,Clear,0,2013-06-30 10:15:00
4:35 AM,67.6,46.6,47,30.16,10.0,North,6.9,-,N/A,,Clear,360,2013-06-30 10:35:00
4:55 AM,67.8,45.3,44,30.16,10.0,Calm,Calm,-,N/A,,Clear,0,2013-06-30 10:55:00
5:15 AM,64.8,41.9,43,30.16,10.0,Calm,Calm,-,N/A,,Clear,0,2013-06-30 11:15:00
5:35 AM,63.5,42.1,46,30.17,10.0,Calm,Calm,-,N/A,,Clear,0,2013-06-30 11:35:00
5:55 AM,63.0,42.4,47,30.18,10.0,Calm,Calm,-,N/A,,Clear,0,2013-06-30 11:55:00
6:15 AM,63.5,44.1,49,30.19,10.0,Calm,Calm,-,N/A,,Clear,0,2013-06-30 12:15:00
6:35 AM,64.8,43.3,46,30.19,10.0,ENE,4.6,-,N/A,,Clear,60,2013-06-30 12:35:00
6:55 AM,67.6,43.9,42,30.20,10.0,Calm,Calm,-,N/A,,Clear,0,2013-06-30 12:55:00
7:15 AM,69.1,43.7,40,30.20,10.0,NNE,4.6,-,N/A,,Clear,30,2013-06-30 13:15:00
7:35 AM,70.5,43.5,38,30.20,10.0,NE,4.6,-,N/A,,Clear,50,2013-06-30 13:35:00
7:55 AM,72.1,43.0,35,30.20,10.0,NE,3.5,-,N/A,,Clear,40,2013-06-30 13:55:00
8:15 AM,72.5,45.1,37,30.21,10.0,ENE,3.5,-,N/A,,Clear,60,2013-06-30 14:15:00
8:35 AM,74.3,44.1,34,30.20,10.0,ENE,3.5,-,N/A,,Clear,60,2013-06-30 14:35:00
8:55 AM,75.2,45.1,34,30.20,10.0,Calm,Calm,-,N/A,,Clear,0,2013-06-30 14:55:00
9:15 AM,77.0,45.3,32,30.20,10.0,East,4.6,-,N/A,,Clear,90,2013-06-30 15:15:00
9:35 AM,79.0,45.0,30,30.19,10.0,East,4.6,-,N/A,,Clear,100,2013-06-30 15:35:00
9:55 AM,79.7,45.0,29,30.19,10.0,SE,4.6,-,N/A,,Clear,130,2013-06-30 15:55:00
10:15 AM,81.3,45.0,28,30.18,10.0,SSE,4.6,-,N/A,,Clear,160,2013-06-30 16:15:00
10:35 AM,82.8,46.0,28,30.18,10.0,SSE,4.6,-,N/A,,Clear,160,2013-06-30 16:35:00
10:55 AM,83.8,46.0,27,30.18,10.0,Calm,Calm,-,N/A,,Clear,0,2013-06-30 16:55:00
11:15 AM,83.8,44.6,25,30.17,10.0,SSW,4.6,-,N/A,,Clear,210,2013-06-30 17:15:00
11:35 AM,84.2,43.9,24,30.16,10.0,WSW,3.5,-,N/A,,Clear,240,2013-06-30 17:35:00
11:55 AM,86.9,41.0,20,30.15,10.0,Calm,Calm,-,N/A,,Clear,0,2013-06-30 17:55:00
12:15 PM,89.2,40.8,18,30.15,10.0,SW,4.6,-,N/A,,Clear,220,2013-06-30 18:15:00
12:35 PM,90.0,39.7,17,30.14,10.0,ESE,4.6,-,N/A,,Clear,110,2013-06-30 18:35:00
12:55 PM,91.6,40.6,17,30.12,10.0,South,4.6,-,N/A,,Clear,180,2013-06-30 18:55:00
1:15 PM,93.6,39.2,15,30.12,10.0,ESE,5.8,-,N/A,,Clear,110,2013-06-30 19:15:00
1:35 PM,93.2,38.7,15,30.10,10.0,SE,4.6,-,N/A,,Clear,130,2013-06-30 19:35:00
1:55 PM,93.2,38.7,15,30.09,10.0,SE,8.1,-,N/A,Thunderstorm,Clear,130,2013-06-30 19:55:00
2:15 PM,94.8,41.4,16,30.08,10.0,SE,9.2,-,N/A,,Clear,130,2013-06-30 20:15:00
2:35 PM,95.0,39.9,15,30.07,10.0,ESE,4.6,-,N/A,,Clear,110,2013-06-30 20:35:00
2:55 PM,93.9,38.8,15,30.06,10.0,South,4.6,-,N/A,,Scattered Clouds,190,2013-06-30 20:55:00
3:15 PM,95.9,37.8,13,30.05,10.0,Calm,Calm,-,N/A,,Clear,0,2013-06-30 21:15:00
3:35 PM,94.3,32.0,11,30.06,10.0,NNW,25.3,38.0,N/A,,Clear,340,2013-06-30 21:35:00
3:55 PM,92.8,33.8,12,30.06,10.0,NNW,15.0,21.9,N/A,,Clear,340,2013-06-30 21:55:00
4:15 PM,93.2,34.5,13,30.05,10.0,North,16.1,-,N/A,,Scattered Clouds,360,2013-06-30 22:15:00
4:35 PM,95.2,36.1,13,30.04,10.0,North,10.4,18.4,N/A,,Clear,10,2013-06-30 22:35:00
4:55 PM,97.7,35.8,12,30.03,10.0,NE,12.7,16.1,N/A,,Clear,50,2013-06-30 22:55:00
5:15 PM,97.2,36.3,12,30.03,10.0,ENE,3.5,17.3,N/A,,Clear,70,2013-06-30 23:15:00
5:35 PM,98.1,35.4,11,30.02,10.0,North,9.2,-,N/A,,Clear,10,2013-06-30 23:35:00
5:55 PM,98.8,35.2,11,30.01,10.0,NW,10.4,20.7,N/A,,Clear,320,2013-06-30 23:55:00
6:15 PM,97.5,34.9,11,30.01,10.0,NNW,8.1,17.3,N/A,,Clear,340,2013-07-01 00:15:00
6:35 PM,98.1,36.0,11,30.01,10.0,NNE,12.7,-,N/A,,Clear,20,2013-07-01 00:35:00
6:55 PM,97.2,36.1,12,30.01,10.0,North,15.0,23.0,N/A,,Clear,10,2013-07-01 00:55:00
7:15 PM,95.7,37.4,13,30.02,10.0,NNE,11.5,16.1,N/A,,Clear,20,2013-07-01 01:15:00
7:35 PM,93.7,37.6,14,30.02,10.0,NNE,13.8,19.6,N/A,,Clear,20,2013-07-01 01:35:00
7:55 PM,93.4,36.5,14,30.02,10.0,NE,11.5,-,N/A,,Clear,50,2013-07-01 01:55:00
8:15 PM,90.7,39.2,16,30.03,10.0,NNE,6.9,-,N/A,,Clear,20,2013-07-01 02:15:00
8:35 PM,86.5,38.1,18,30.04,10.0,NNE,9.2,-,N/A,,Clear,20,2013-07-01 02:35:00
8:55 PM,84.2,37.6,19,30.04,10.0,NNW,5.8,-,N/A,,Clear,340,2013-07-01 02:55:00
9:15 PM,84.6,37.4,19,30.05,10.0,North,8.1,-,N/A,,Clear,350,2013-07-01 03:15:00
9:35 PM,84.0,38.3,20,30.07,10.0,ESE,6.9,-,N/A,,Clear,120,2013-07-01 03:35:00
9:55 PM,84.4,39.9,21,30.09,10.0,ENE,12.7,17.3,N/A,,Clear,60,2013-07-01 03:55:00
10:15 PM,83.7,40.1,21,30.10,10.0,ENE,8.1,-,N/A,,Clear,60,2013-07-01 04:15:00
10:35 PM,81.0,41.0,24,30.12,10.0,ENE,5.8,-,N/A,,Clear,60,2013-07-01 04:35:00
10:55 PM,78.3,43.3,29,30.12,10.0,NNE,4.6,-,N/A,,Clear,30,2013-07-01 04:55:00
11:15 PM,74.7,44.1,33,30.13,10.0,North,5.8,-,N/A,,Clear,10,2013-07-01 05:15:00
11:35 PM,74.1,45.3,36,30.13,10.0,NE,3.5,-,N/A,,Clear,50,2013-07-01 05:35:00
11:55 PM,75.2,41.0,29,30.14,10.0,NE,6.9,-,N/A,,Clear,40,2013-07-01 05:55:00